Time,TemperatureF,DewpointF,PressureIn,WindDirection,WindDirectionDegrees,WindSpeedMPH,WindSpeedGustMPH,Humidity,HourlyPrecipIn,Conditions,Clouds,dailyrainin,SoftwareType,DateUTC
2013-05-15 00:01:00,56.0,47.1,29.72,SE,126,5.0,10.0,72,0.00,,---,0.00,VWS V14.01,2013-05-15 04:01:00,
2013-05-15 00:02:00,56.0,47.1,29.72,ESE,108,3.0,10.0,72,0.00,,---,0.00,VWS V14.01,2013-05-15 04:02:00,
2013-05-15 00:03:00,56.0,47.5,29.73,SE,127,5.0,6.0,73,0.00,,---,0.00,VWS V14.01,2013-05-15 04:03:00,
2013-05-15 00:08:00,56.0,47.5,29.73,ESE,110,1.0,6.0,73,0.00,,---,0.00,VWS V14.01,2013-05-15 04:08:00,
2013-05-15 00:13:00,55.9,47.7,29.71,East,79,4.0,6.0,74,0.00,,---,0.00,VWS V14.01,2013-05-15 04:13:00,
2013-05-15 00:18:00,55.7,47.9,29.71,ESE,104,2.0,6.0,75,0.00,,---,0.00,VWS V14.01,2013-05-15 04:18:00,
2013-05-15 00:23:00,55.6,47.8,29.71,SSE,156,4.0,9.0,75,0.00,,---,0.00,VWS V14.01,2013-05-15 04:23:00,
2013-05-15 00:28:00,55.6,47.8,29.72,ENE,67,3.0,9.0,75,0.00,,---,0.00,VWS V14.01,2013-05-15 04:28:00,
2013-05-15 00:33:00,55.5,48.1,29.72,NE,39,4.0,9.0,76,0.00,,---,0.00,VWS V14.01,2013-05-15 04:33:00,
2013-05-15 00:38:00,55.4,48.3,29.72,SSE,156,2.0,9.0,77,0.00,,---,0.00,VWS V14.01,2013-05-15 04:38:00,
2013-05-15 00:43:00,55.3,48.2,29.72,South,191,2.0,9.0,77,0.00,,---,0.00,VWS V14.01,2013-05-15 04:43:00,
2013-05-15 00:49:00,55.4,48.3,29.72,SE,136,0.0,9.0,77,0.00,,---,0.00,VWS V14.01,2013-05-15 04:49:00,
2013-05-15 00:54:00,55.4,48.3,29.72,SE,127,1.0,9.0,77,0.00,,---,0.00,VWS V14.01,2013-05-15 04:54:00,
2013-05-15 00:59:00,55.5,48.1,29.71,ESE,105,3.0,9.0,76,0.00,,---,0.00,VWS V14.01,2013-05-15 04:59:00,
2013-05-15 01:04:00,55.5,48.1,29.70,ESE,109,4.0,6.0,76,0.00,,---,0.00,VWS V14.01,2013-05-15 05:04:00,
2013-05-15 01:09:00,55.5,48.1,29.70,SSE,149,6.0,6.0,76,0.00,,---,0.00,VWS V14.01,2013-05-15 05:09:00,
2013-05-15 01:14:00,55.4,48.3,29.70,SE,128,2.0,6.0,77,0.00,,---,0.00,VWS V14.01,2013-05-15 05:14:00,
2013-05-15 01:19:00,55.3,48.2,29.69,SE,141,4.0,6.0,77,0.00,,---,0.00,VWS V14.01,2013-05-15 05:19:00,
2013-05-15 01:24:00,55.2,48.5,29.69,SE,127,4.0,6.0,78,0.00,,---,0.00,VWS V14.01,2013-05-15 05:24:00,
2013-05-15 01:29:00,55.3,48.6,29.70,ESE,117,0.0,6.0,78,0.00,,---,0.00,VWS V14.01,2013-05-15 05:29:00,
2013-05-15 01:34:00,55.4,48.7,29.69,WSW,246,1.0,6.0,78,0.00,,---,0.00,VWS V14.01,2013-05-15 05:34:00,
2013-05-15 01:39:00,55.4,48.7,29.69,ESE,122,3.0,6.0,78,0.00,,---,0.00,VWS V14.01,2013-05-15 05:39:00,
2013-05-15 01:44:00,55.5,48.8,29.69,SE,132,2.0,6.0,78,0.00,,---,0.00,VWS V14.01,2013-05-15 05:44:00,
2013-05-15 01:49:00,55.5,48.8,29.69,SE,125,3.0,6.0,78,0.00,,---,0.00,VWS V14.01,2013-05-15 05:49:00,
2013-05-15 01:55:00,55.6,48.9,29.68,ESE,108,4.0,6.0,78,0.00,,---,0.00,VWS V14.01,2013-05-15 05:55:00,
2013-05-15 02:00:00,55.6,48.9,29.67,SE,134,3.0,8.0,78,0.00,,---,0.00,VWS V14.01,2013-05-15 06:00:00,
2013-05-15 02:05:00,55.7,49.0,29.67,SSE,150,6.0,8.0,78,0.00,,---,0.00,VWS V14.01,2013-05-15 06:05:00,
2013-05-15 02:10:00,55.9,49.2,29.67,SSE,166,9.0,10.0,78,0.00,,---,0.00,VWS V14.01,2013-05-15 06:10:00,
2013-05-15 02:15:00,55.9,49.2,29.65,SSE,165,6.0,10.0,78,0.00,,---,0.00,VWS V14.01,2013-05-15 06:15:00,
2013-05-15 02:20:00,55.9,49.5,29.64,SSE,162,7.0,14.0,79,0.00,,---,0.00,VWS V14.01,2013-05-15 06:20:00,
2013-05-15 02:25:00,56.1,49.3,29.63,SE,146,8.0,15.0,78,0.00,,---,0.00,VWS V14.01,2013-05-15 06:25:00,
2013-05-15 02:30:00,56.2,49.8,29.63,SSE,156,10.0,15.0,79,0.00,,---,0.00,VWS V14.01,2013-05-15 06:30:00,
2013-05-15 02:35:00,56.3,49.9,29.63,SE,124,7.0,15.0,79,0.00,,---,0.00,VWS V14.01,2013-05-15 06:35:00,
2013-05-15 02:40:00,56.7,50.3,29.63,SSE,154,2.0,15.0,79,0.00,,---,0.00,VWS V14.01,2013-05-15 06:40:00,
2013-05-15 02:45:00,57.0,50.2,29.64,South,174,4.0,15.0,78,0.00,,---,0.00,VWS V14.01,2013-05-15 06:45:00,
2013-05-15 02:50:00,57.1,50.3,29.64,SE,138,1.0,15.0,78,0.00,,---,0.00,VWS V14.01,2013-05-15 06:50:00,
2013-05-15 02:55:00,57.0,50.2,29.63,ESE,114,3.0,15.0,78,0.00,,---,0.00,VWS V14.01,2013-05-15 06:55:00,
2013-05-15 03:01:00,56.8,50.4,29.62,SE,136,4.0,15.0,79,0.00,,---,0.00,VWS V14.01,2013-05-15 07:01:00,
2013-05-15 03:06:00,56.8,50.4,29.62,SE,134,3.0,6.0,79,0.00,,---,0.00,VWS V14.01,2013-05-15 07:06:00,
2013-05-15 03:11:00,56.9,50.5,29.62,SE,140,3.0,8.0,79,0.00,,---,0.00,VWS V14.01,2013-05-15 07:11:00,
2013-05-15 03:16:00,56.8,50.4,29.62,SSE,149,3.0,8.0,79,0.00,,---,0.00,VWS V14.01,2013-05-15 07:16:00,
2013-05-15 03:21:00,56.9,50.5,29.62,SSE,156,3.0,8.0,79,0.00,,---,0.00,VWS V14.01,2013-05-15 07:21:00,
2013-05-15 03:26:00,56.8,50.7,29.62,SE,142,6.0,8.0,80,0.00,,---,0.00,VWS V14.01,2013-05-15 07:26:00,
2013-05-15 03:31:00,56.8,50.7,29.61,SE,146,6.0,8.0,80,0.00,,---,0.00,VWS V14.01,2013-05-15 07:31:00,
2013-05-15 03:36:00,56.8,51.0,29.61,South,172,3.0,8.0,81,0.00,,---,0.00,VWS V14.01,2013-05-15 07:36:00,
2013-05-15 03:41:00,57.1,51.3,29.61,SSE,158,4.0,9.0,81,0.00,,---,0.00,VWS V14.01,2013-05-15 07:41:00,
2013-05-15 03:46:00,57.3,51.9,29.61,SE,146,2.0,9.0,82,0.00,,---,0.00,VWS V14.01,2013-05-15 07:46:00,
2013-05-15 03:52:00,57.4,52.0,29.61,SE,146,4.0,9.0,82,0.00,,---,0.00,VWS V14.01,2013-05-15 07:52:00,
2013-05-15 03:57:00,57.5,52.1,29.60,SSE,150,4.0,9.0,82,0.00,,---,0.00,VWS V14.01,2013-05-15 07:57:00,
2013-05-15 04:02:00,57.8,52.3,29.60,South,174,6.0,6.0,82,0.00,,---,0.00,VWS V14.01,2013-05-15 08:02:00,
2013-05-15 04:07:00,58.1,52.6,29.60,SE,136,5.0,8.0,82,0.00,,---,0.00,VWS V14.01,2013-05-15 08:07:00,
2013-05-15 04:12:00,58.2,52.7,29.60,ESE,122,2.0,8.0,82,0.00,,---,0.00,VWS V14.01,2013-05-15 08:12:00,
2013-05-15 04:17:00,58.0,52.5,29.59,SE,138,6.0,8.0,82,0.00,,---,0.00,VWS V14.01,2013-05-15 08:17:00,
2013-05-15 04:22:00,57.9,52.5,29.59,SE,145,5.0,8.0,82,0.00,,---,0.00,VWS V14.01,2013-05-15 08:22:00,
2013-05-15 04:27:00,57.8,52.3,29.59,South,183,2.0,8.0,82,0.00,,---,0.00,VWS V14.01,2013-05-15 08:27:00,
2013-05-15 04:32:00,57.8,52.7,29.59,SSW,202,4.0,8.0,83,0.00,,---,0.00,VWS V14.01,2013-05-15 08:32:00,
2013-05-15 04:37:00,57.6,52.5,29.58,South,188,1.0,8.0,83,0.00,,---,0.00,VWS V14.01,2013-05-15 08:37:00,
2013-05-15 04:42:00,57.5,52.7,29.58,SSE,155,2.0,8.0,84,0.00,,---,0.00,VWS V14.01,2013-05-15 08:42:00,
2013-05-15 04:48:00,57.5,52.7,29.58,South,172,3.0,8.0,84,0.00,,---,0.00,VWS V14.01,2013-05-15 08:48:00,
2013-05-15 04:53:00,57.5,52.7,29.58,SSE,166,3.0,8.0,84,0.00,,---,0.00,VWS V14.01,2013-05-15 08:53:00,
2013-05-15 04:58:00,57.5,53.0,29.58,SSE,165,3.0,8.0,85,0.00,,---,0.00,VWS V14.01,2013-05-15 08:58:00,
2013-05-15 05:03:00,57.6,53.1,29.58,SSE,166,3.0,4.0,85,0.00,,---,0.00,VWS V14.01,2013-05-15 09:03:00,
2013-05-15 05:08:00,57.6,53.1,29.58,South,188,2.0,5.0,85,0.00,,---,0.00,VWS V14.01,2013-05-15 09:08:00,
2013-05-15 05:13:00,57.7,53.2,29.57,SSW,211,2.0,6.0,85,0.00,,---,0.00,VWS V14.01,2013-05-15 09:13:00,
2013-05-15 05:18:00,57.7,53.2,29.57,SSW,212,2.0,6.0,85,0.00,,---,0.00,VWS V14.01,2013-05-15 09:18:00,
2013-05-15 05:23:00,57.6,53.1,29.57,SSE,152,1.0,6.0,85,0.00,,---,0.00,VWS V14.01,2013-05-15 09:23:00,
2013-05-15 05:28:00,57.8,53.7,29.57,SW,230,2.0,6.0,86,0.00,,---,0.00,VWS V14.01,2013-05-15 09:28:00,
2013-05-15 05:33:00,58.1,53.9,29.57,South,188,3.0,6.0,86,0.00,,---,0.00,VWS V14.01,2013-05-15 09:33:00,
2013-05-15 05:38:00,58.3,54.1,29.57,SSW,208,3.0,6.0,86,0.00,,---,0.00,VWS V14.01,2013-05-15 09:38:00,
2013-05-15 05:43:00,58.3,53.8,29.57,SW,214,4.0,6.0,85,0.00,,---,0.00,VWS V14.01,2013-05-15 09:43:00,
2013-05-15 05:49:00,58.3,54.1,29.57,SW,214,5.0,6.0,86,0.00,,---,0.00,VWS V14.01,2013-05-15 09:49:00,
2013-05-15 05:54:00,58.6,54.4,29.57,SSW,198,4.0,7.0,86,0.00,,---,0.00,VWS V14.01,2013-05-15 09:54:00,
2013-05-15 05:59:00,58.6,54.4,29.57,SSW,207,3.0,7.0,86,0.00,,---,0.00,VWS V14.01,2013-05-15 09:59:00,
2013-05-15 06:04:00,58.6,54.4,29.57,SW,234,3.0,6.0,86,0.00,,---,0.00,VWS V14.01,2013-05-15 10:04:00,
2013-05-15 06:09:00,59.0,55.5,29.57,WSW,245,4.0,6.0,88,0.00,,---,0.00,VWS V14.01,2013-05-15 10:09:00,
2013-05-15 06:14:00,59.6,55.7,29.57,SW,226,3.0,6.0,87,0.00,,---,0.00,VWS V14.01,2013-05-15 10:14:00,
2013-05-15 06:19:00,60.4,56.2,29.57,SW,215,6.0,6.0,86,0.00,,---,0.00,VWS V14.01,2013-05-15 10:19:00,
2013-05-15 06:25:00,61.3,56.8,29.57,SW,224,3.0,9.0,85,0.00,,---,0.00,VWS V14.01,2013-05-15 10:25:00,
2013-05-15 06:30:00,61.9,57.0,29.57,SSW,212,4.0,9.0,84,0.00,,---,0.00,VWS V14.01,2013-05-15 10:30:00,
2013-05-15 06:35:00,62.6,57.4,29.57,SW,236,4.0,9.0,83,0.00,,---,0.00,VWS V14.01,2013-05-15 10:35:00,
2013-05-15 06:40:00,63.3,57.7,29.57,SW,233,4.0,9.0,82,0.00,,---,0.00,VWS V14.01,2013-05-15 10:40:00,
2013-05-15 06:45:00,63.9,58.0,29.57,SW,221,3.0,9.0,81,0.00,,---,0.00,VWS V14.01,2013-05-15 10:45:00,
2013-05-15 06:50:00,64.8,58.1,29.57,WSW,240,3.0,9.0,79,0.00,,---,0.00,VWS V14.01,2013-05-15 10:50:00,
2013-05-15 06:55:00,65.5,58.5,29.57,West,262,3.0,9.0,78,0.00,,---,0.00,VWS V14.01,2013-05-15 10:55:00,
2013-05-15 07:00:00,66.5,58.7,29.57,SW,230,7.0,9.0,76,0.00,,---,0.00,VWS V14.01,2013-05-15 11:00:00,
2013-05-15 07:05:00,67.5,58.9,29.57,WSW,244,6.0,8.0,74,0.00,,---,0.00,VWS V14.01,2013-05-15 11:05:00,
2013-05-15 07:11:00,68.6,59.2,29.57,West,280,6.0,13.0,72,0.00,,---,0.00,VWS V14.01,2013-05-15 11:11:00,
2013-05-15 07:16:00,69.5,59.3,29.57,WSW,249,11.0,13.0,70,0.00,,---,0.00,VWS V14.01,2013-05-15 11:16:00,
2013-05-15 07:21:00,70.2,59.2,29.58,SW,232,7.0,13.0,68,0.00,,---,0.00,VWS V14.01,2013-05-15 11:21:00,
2013-05-15 07:26:00,70.8,59.3,29.58,SW,217,4.0,14.0,67,0.00,,---,0.00,VWS V14.01,2013-05-15 11:26:00,
2013-05-15 07:31:00,71.3,58.9,29.58,West,267,8.0,16.0,65,0.00,,---,0.00,VWS V14.01,2013-05-15 11:31:00,
2013-05-15 07:37:00,71.7,58.9,29.58,West,281,9.0,16.0,64,0.00,,---,0.00,VWS V14.01,2013-05-15 11:37:00,
2013-05-15 07:42:00,71.9,59.1,29.58,WSW,256,6.0,16.0,64,0.00,,---,0.00,VWS V14.01,2013-05-15 11:42:00,
2013-05-15 07:47:00,72.3,58.6,29.58,WNW,292,12.0,16.0,62,0.00,,---,0.00,VWS V14.01,2013-05-15 11:47:00,
2013-05-15 07:52:00,72.7,58.5,29.59,WSW,243,6.0,19.0,61,0.00,,---,0.00,VWS V14.01,2013-05-15 11:52:00,
2013-05-15 07:57:00,72.9,58.2,29.59,West,276,9.0,19.0,60,0.00,,---,0.00,VWS V14.01,2013-05-15 11:57:00,
2013-05-15 08:03:00,73.1,58.4,29.59,West,281,11.0,17.0,60,0.00,,---,0.00,VWS V14.01,2013-05-15 12:03:00,
2013-05-15 08:08:00,73.3,57.7,29.59,West,259,11.0,21.0,58,0.00,,---,0.00,VWS V14.01,2013-05-15 12:08:00,
2013-05-15 08:13:00,73.5,57.8,29.59,WSW,246,10.0,21.0,58,0.00,,---,0.00,VWS V14.01,2013-05-15 12:13:00,
2013-05-15 08:18:00,73.7,57.5,29.60,West,259,8.0,24.0,57,0.00,,---,0.00,VWS V14.01,2013-05-15 12:18:00,
2013-05-15 08:23:00,73.7,57.5,29.60,WNW,285,14.0,24.0,57,0.00,,---,0.00,VWS V14.01,2013-05-15 12:23:00,
2013-05-15 08:28:00,73.8,57.1,29.60,WSW,240,11.0,29.0,56,0.00,,---,0.00,VWS V14.01,2013-05-15 12:28:00,
2013-05-15 08:33:00,73.8,56.6,29.61,West,259,8.0,29.0,55,0.00,,---,0.00,VWS V14.01,2013-05-15 12:33:00,
2013-05-15 08:38:00,73.8,56.1,29.61,West,279,12.0,29.0,54,0.00,,---,0.00,VWS V14.01,2013-05-15 12:38:00,
2013-05-15 08:43:00,73.8,56.1,29.61,WNW,291,12.0,29.0,54,0.00,,---,0.00,VWS V14.01,2013-05-15 12:43:00,
2013-05-15 08:48:00,73.7,55.5,29.61,WNW,294,13.0,29.0,53,0.00,,---,0.00,VWS V14.01,2013-05-15 12:48:00,
2013-05-15 08:54:00,73.6,55.4,29.62,WNW,285,10.0,29.0,53,0.00,,---,0.00,VWS V14.01,2013-05-15 12:54:00,
2013-05-15 08:59:00,73.7,55.5,29.62,NW,310,6.0,29.0,53,0.00,,---,0.00,VWS V14.01,2013-05-15 12:59:00,
2013-05-15 09:04:00,73.7,55.5,29.62,West,263,3.0,14.0,53,0.00,,---,0.00,VWS V14.01,2013-05-15 13:04:00,
2013-05-15 09:09:00,73.7,53.9,29.62,WNW,292,12.0,18.0,50,0.00,,---,0.00,VWS V14.01,2013-05-15 13:09:00,
2013-05-15 09:15:00,73.5,54.3,29.63,West,268,11.0,18.0,51,0.00,,---,0.00,VWS V14.01,2013-05-15 13:15:00,
2013-05-15 09:20:00,73.4,53.7,29.63,WNW,294,7.0,18.0,50,0.00,,---,0.00,VWS V14.01,2013-05-15 13:20:00,
2013-05-15 09:25:00,73.5,53.7,29.63,WSW,255,11.0,18.0,50,0.00,,---,0.00,VWS V14.01,2013-05-15 13:25:00,
2013-05-15 09:30:00,73.4,53.1,29.63,NW,310,10.0,18.0,49,0.00,,---,0.00,VWS V14.01,2013-05-15 13:30:00,
2013-05-15 09:36:00,73.6,54.4,29.63,SW,236,10.0,18.0,51,0.00,,---,0.00,VWS V14.01,2013-05-15 13:36:00,
2013-05-15 09:41:00,73.6,52.7,29.64,West,259,7.0,18.0,48,0.00,,---,0.00,VWS V14.01,2013-05-15 13:41:00,
2013-05-15 09:46:00,73.7,52.8,29.64,West,271,10.0,18.0,48,0.00,,---,0.00,VWS V14.01,2013-05-15 13:46:00,
2013-05-15 09:51:00,73.6,52.7,29.64,West,276,6.0,18.0,48,0.00,,---,0.00,VWS V14.01,2013-05-15 13:51:00,
2013-05-15 09:56:00,73.8,52.3,29.64,NW,309,7.0,18.0,47,0.00,,---,0.00,VWS V14.01,2013-05-15 13:56:00,
2013-05-15 10:01:00,74.0,54.2,29.64,NNW,340,6.0,18.0,50,0.00,,---,0.00,VWS V14.01,2013-05-15 14:01:00,
2013-05-15 10:06:00,74.1,53.7,29.64,NW,305,8.0,13.0,49,0.00,,---,0.00,VWS V14.01,2013-05-15 14:06:00,
2013-05-15 10:11:00,73.9,53.0,29.65,WNW,292,9.0,17.0,48,0.00,,---,0.00,VWS V14.01,2013-05-15 14:11:00,
2013-05-15 10:16:00,73.7,52.8,29.65,WNW,295,8.0,17.0,48,0.00,,---,0.00,VWS V14.01,2013-05-15 14:16:00,
2013-05-15 10:21:00,73.6,51.6,29.65,NW,311,13.0,18.0,46,0.00,,---,0.00,VWS V14.01,2013-05-15 14:21:00,
2013-05-15 10:26:00,73.8,51.8,29.65,West,270,6.0,18.0,46,0.00,,---,0.00,VWS V14.01,2013-05-15 14:26:00,
2013-05-15 10:31:00,74.1,52.6,29.65,WSW,253,9.0,18.0,47,0.00,,---,0.00,VWS V14.01,2013-05-15 14:31:00,
2013-05-15 10:36:00,74.1,52.0,29.65,WNW,285,7.0,18.0,46,0.00,,---,0.00,VWS V14.01,2013-05-15 14:36:00,
2013-05-15 10:42:00,73.9,50.6,29.65,West,267,10.0,18.0,44,0.00,,---,0.00,VWS V14.01,2013-05-15 14:42:00,
2013-05-15 10:47:00,74.0,51.9,29.65,WNW,297,7.0,18.0,46,0.00,,---,0.00,VWS V14.01,2013-05-15 14:47:00,
2013-05-15 10:52:00,74.1,52.6,29.65,WNW,288,7.0,18.0,47,0.00,,---,0.00,VWS V14.01,2013-05-15 14:52:00,
2013-05-15 10:58:00,74.4,51.1,29.65,WNW,301,6.0,18.0,44,0.00,,---,0.00,VWS V14.01,2013-05-15 14:58:00,
2013-05-15 11:03:00,74.3,51.0,29.66,NW,309,11.0,11.0,44,0.00,,---,0.00,VWS V14.01,2013-05-15 15:03:00,
2013-05-15 11:08:00,74.5,52.4,29.66,West,274,8.0,16.0,46,0.00,,---,0.00,VWS V14.01,2013-05-15 15:08:00,
2013-05-15 11:13:00,74.8,52.1,29.66,NW,310,12.0,17.0,45,0.00,,---,0.00,VWS V14.01,2013-05-15 15:13:00,
2013-05-15 11:18:00,74.6,50.7,29.66,NW,306,11.0,19.0,43,0.00,,---,0.00,VWS V14.01,2013-05-15 15:18:00,
2013-05-15 11:23:00,74.6,50.7,29.66,WNW,288,10.0,20.0,43,0.00,,---,0.00,VWS V14.01,2013-05-15 15:23:00,
2013-05-15 11:28:00,75.0,51.6,29.66,WNW,285,4.0,20.0,44,0.00,,---,0.00,VWS V14.01,2013-05-15 15:28:00,
2013-05-15 11:33:00,75.0,51.0,29.66,NW,308,11.0,20.0,43,0.00,,---,0.00,VWS V14.01,2013-05-15 15:33:00,
2013-05-15 11:38:00,75.0,51.6,29.66,West,271,6.0,20.0,44,0.00,,---,0.00,VWS V14.01,2013-05-15 15:38:00,
2013-05-15 11:44:00,75.6,52.8,29.66,WNW,295,11.0,20.0,45,0.00,,---,0.00,VWS V14.01,2013-05-15 15:44:00,
2013-05-15 11:49:00,75.7,51.0,29.67,NW,308,7.0,20.0,42,0.00,,---,0.00,VWS V14.01,2013-05-15 15:49:00,
2013-05-15 11:54:00,75.8,51.7,29.67,WNW,297,10.0,20.0,43,0.00,,---,0.00,VWS V14.01,2013-05-15 15:54:00,
2013-05-15 11:59:00,76.0,52.5,29.67,West,278,9.0,20.0,44,0.00,,---,0.00,VWS V14.01,2013-05-15 15:59:00,
2013-05-15 12:04:00,76.3,52.8,29.67,WSW,253,7.0,13.0,44,0.00,,---,0.00,VWS V14.01,2013-05-15 16:04:00,
2013-05-15 12:09:00,76.6,53.1,29.68,West,264,9.0,18.0,44,0.00,,---,0.00,VWS V14.01,2013-05-15 16:09:00,
2013-05-15 12:14:00,76.8,51.3,29.68,West,267,8.0,18.0,41,0.00,,---,0.00,VWS V14.01,2013-05-15 16:14:00,
2013-05-15 12:19:00,76.7,51.2,29.68,West,263,10.0,22.0,41,0.00,,---,0.00,VWS V14.01,2013-05-15 16:19:00,
2013-05-15 12:24:00,76.5,50.4,29.69,West,259,13.0,23.0,40,0.00,,---,0.00,VWS V14.01,2013-05-15 16:24:00,
2013-05-15 12:30:00,76.4,50.3,29.69,WNW,287,13.0,23.0,40,0.00,,---,0.00,VWS V14.01,2013-05-15 16:30:00,
2013-05-15 12:35:00,76.2,49.5,29.70,West,259,14.0,23.0,39,0.00,,---,0.00,VWS V14.01,2013-05-15 16:35:00,
2013-05-15 12:40:00,76.4,51.0,29.70,West,269,5.0,23.0,41,0.00,,---,0.00,VWS V14.01,2013-05-15 16:40:00,
2013-05-15 12:45:00,76.6,50.5,29.70,WNW,297,9.0,23.0,40,0.00,,---,0.00,VWS V14.01,2013-05-15 16:45:00,
2013-05-15 12:50:00,76.7,50.6,29.70,NW,305,14.0,23.0,40,0.00,,---,0.00,VWS V14.01,2013-05-15 16:50:00,
2013-05-15 12:55:00,76.5,51.1,29.70,West,278,6.0,24.0,41,0.00,,---,0.00,VWS V14.01,2013-05-15 16:55:00,
2013-05-15 13:01:00,76.7,51.9,29.70,WNW,301,5.0,24.0,42,0.00,,---,0.00,VWS V14.01,2013-05-15 17:01:00,
2013-05-15 13:06:00,77.0,50.2,29.70,WSW,252,13.0,16.0,39,0.00,,---,0.00,VWS V14.01,2013-05-15 17:06:00,
2013-05-15 13:11:00,76.6,51.2,29.70,NW,309,14.0,19.0,41,0.00,,---,0.00,VWS V14.01,2013-05-15 17:11:00,
2013-05-15 13:16:00,76.3,50.9,29.70,NW,309,7.0,19.0,41,0.00,,---,0.00,VWS V14.01,2013-05-15 17:16:00,
2013-05-15 13:22:00,76.4,51.6,29.70,NW,311,4.0,19.0,42,0.00,,---,0.00,VWS V14.01,2013-05-15 17:22:00,
2013-05-15 13:27:00,76.8,51.3,29.71,North,349,8.0,19.0,41,0.00,,---,0.00,VWS V14.01,2013-05-15 17:27:00,
2013-05-15 13:32:00,76.7,50.6,29.71,West,267,7.0,20.0,40,0.00,,---,0.00,VWS V14.01,2013-05-15 17:32:00,
2013-05-15 13:37:00,76.8,50.0,29.71,WNW,297,9.0,24.0,39,0.00,,---,0.00,VWS V14.01,2013-05-15 17:37:00,
2013-05-15 13:42:00,76.3,50.9,29.71,WNW,283,9.0,24.0,41,0.00,,---,0.00,VWS V14.01,2013-05-15 17:42:00,
2013-05-15 13:47:00,76.8,51.3,29.71,West,281,11.0,24.0,41,0.00,,---,0.00,VWS V14.01,2013-05-15 17:47:00,
2013-05-15 13:53:00,76.6,51.8,29.71,NW,319,10.0,24.0,42,0.00,,---,0.00,VWS V14.01,2013-05-15 17:53:00,
2013-05-15 13:58:00,76.2,51.5,29.71,NNW,332,6.0,24.0,42,0.00,,---,0.00,VWS V14.01,2013-05-15 17:58:00,
2013-05-15 14:03:00,76.4,50.3,29.71,West,274,11.0,16.0,40,0.00,,---,0.00,VWS V14.01,2013-05-15 18:03:00,
2013-05-15 14:08:00,76.3,49.5,29.71,WNW,295,7.0,19.0,39,0.00,,---,0.00,VWS V14.01,2013-05-15 18:08:00,
2013-05-15 14:14:00,76.4,50.3,29.71,NW,320,19.0,19.0,40,0.00,,---,0.00,VWS V14.01,2013-05-15 18:14:00,
2013-05-15 14:19:00,76.5,49.7,29.71,NW,312,9.0,19.0,39,0.00,,---,0.00,VWS V14.01,2013-05-15 18:19:00,
2013-05-15 14:24:00,76.3,49.5,29.71,WNW,301,8.0,19.0,39,0.00,,---,0.00,VWS V14.01,2013-05-15 18:24:00,
2013-05-15 14:29:00,76.8,48.6,29.71,West,276,15.0,19.0,37,0.00,,---,0.00,VWS V14.01,2013-05-15 18:29:00,
2013-05-15 14:34:00,76.9,48.7,29.71,WNW,293,7.0,19.0,37,0.00,,---,0.00,VWS V14.01,2013-05-15 18:34:00,
2013-05-15 14:39:00,76.9,48.7,29.71,West,276,4.0,19.0,37,0.00,,---,0.00,VWS V14.01,2013-05-15 18:39:00,
2013-05-15 14:44:00,76.9,49.4,29.71,West,259,12.0,19.0,38,0.00,,---,0.00,VWS V14.01,2013-05-15 18:44:00,
2013-05-15 14:49:00,76.7,49.2,29.71,WSW,257,8.0,19.0,38,0.00,,---,0.00,VWS V14.01,2013-05-15 18:49:00,
2013-05-15 14:55:00,77.1,50.9,29.70,West,260,7.0,19.0,40,0.00,,---,0.00,VWS V14.01,2013-05-15 18:55:00,
2013-05-15 15:00:00,77.8,50.9,29.71,West,263,11.0,19.0,39,0.00,,---,0.00,VWS V14.01,2013-05-15 19:00:00,
2013-05-15 15:05:00,77.9,50.3,29.71,West,281,12.0,14.0,38,0.00,,---,0.00,VWS V14.01,2013-05-15 19:05:00,
2013-05-15 15:10:00,77.8,50.2,29.71,WNW,295,12.0,14.0,38,0.00,,---,0.00,VWS V14.01,2013-05-15 19:10:00,
2013-05-15 15:15:00,77.6,50.7,29.71,WNW,283,12.0,17.0,39,0.00,,---,0.00,VWS V14.01,2013-05-15 19:15:00,
2013-05-15 15:21:00,77.4,48.4,29.71,NNW,335,10.0,17.0,36,0.00,,---,0.00,VWS V14.01,2013-05-15 19:21:00,
2013-05-15 15:26:00,77.4,49.1,29.71,NW,311,5.0,17.0,37,0.00,,---,0.00,VWS V14.01,2013-05-15 19:26:00,
2013-05-15 15:31:00,77.7,50.1,29.71,NW,314,7.0,17.0,38,0.00,,---,0.00,VWS V14.01,2013-05-15 19:31:00,
2013-05-15 15:36:00,77.6,50.7,29.71,West,281,6.0,17.0,39,0.00,,---,0.00,VWS V14.01,2013-05-15 19:36:00,
2013-05-15 15:42:00,77.6,50.0,29.70,WNW,291,14.0,17.0,38,0.00,,---,0.00,VWS V14.01,2013-05-15 19:42:00,
2013-05-15 15:47:00,77.6,50.7,29.70,WNW,293,5.0,17.0,39,0.00,,---,0.00,VWS V14.01,2013-05-15 19:47:00,
2013-05-15 15:52:00,77.9,50.3,29.70,NNW,348,5.0,17.0,38,0.00,,---,0.00,VWS V14.01,2013-05-15 19:52:00,
2013-05-15 15:57:00,77.9,49.6,29.71,WNW,302,9.0,17.0,37,0.00,,---,0.00,VWS V14.01,2013-05-15 19:57:00,
2013-05-15 16:03:00,77.9,49.6,29.70,WNW,293,7.0,8.0,37,0.00,,---,0.00,VWS V14.01,2013-05-15 20:03:00,
2013-05-15 16:08:00,77.9,51.0,29.71,NW,325,5.0,17.0,39,0.00,,---,0.00,VWS V14.01,2013-05-15 20:08:00,
2013-05-15 16:13:00,77.9,49.6,29.71,NW,324,7.0,17.0,37,0.00,,---,0.00,VWS V14.01,2013-05-15 20:13:00,
2013-05-15 16:19:00,77.9,50.3,29.71,NW,311,8.0,17.0,38,0.00,,---,0.00,VWS V14.01,2013-05-15 20:19:00,
2013-05-15 16:24:00,77.9,50.3,29.71,NW,309,9.0,17.0,38,0.00,,---,0.00,VWS V14.01,2013-05-15 20:24:00,
2013-05-15 16:29:00,77.9,51.0,29.70,WNW,283,7.0,17.0,39,0.00,,---,0.00,VWS V14.01,2013-05-15 20:29:00,
2013-05-15 16:34:00,78.1,51.2,29.70,WNW,302,16.0,19.0,39,0.00,,---,0.00,VWS V14.01,2013-05-15 20:34:00,
2013-05-15 16:39:00,78.1,51.2,29.70,WNW,301,12.0,19.0,39,0.00,,---,0.00,VWS V14.01,2013-05-15 20:39:00,
2013-05-15 16:44:00,78.2,49.1,29.71,West,278,8.0,19.0,36,0.00,,---,0.00,VWS V14.01,2013-05-15 20:44:00,
2013-05-15 16:50:00,78.0,49.7,29.71,WNW,287,10.0,19.0,37,0.00,,---,0.00,VWS V14.01,2013-05-15 20:50:00,
2013-05-15 16:55:00,78.1,49.7,29.71,WNW,288,5.0,19.0,37,0.00,,---,0.00,VWS V14.01,2013-05-15 20:55:00,
2013-05-15 17:00:00,78.5,50.1,29.71,NNW,333,8.0,19.0,37,0.00,,---,0.00,VWS V14.01,2013-05-15 21:00:00,
2013-05-15 17:05:00,78.4,49.3,29.71,NW,314,11.0,19.0,36,0.00,,---,0.00,VWS V14.01,2013-05-15 21:05:00,
2013-05-15 17:10:00,78.3,50.6,29.71,WNW,284,6.0,19.0,38,0.00,,---,0.00,VWS V14.01,2013-05-15 21:10:00,
2013-05-15 17:15:00,78.4,50.0,29.71,West,271,6.0,19.0,37,0.00,,---,0.00,VWS V14.01,2013-05-15 21:15:00,
2013-05-15 17:20:00,78.5,50.8,29.71,NNW,338,8.0,19.0,38,0.00,,---,0.00,VWS V14.01,2013-05-15 21:20:00,
2013-05-15 17:25:00,78.7,49.5,29.71,West,273,5.0,19.0,36,0.00,,---,0.00,VWS V14.01,2013-05-15 21:25:00,
2013-05-15 17:30:00,78.5,52.2,29.71,SW,232,3.0,19.0,40,0.00,,---,0.00,VWS V14.01,2013-05-15 21:30:00,
2013-05-15 17:36:00,78.6,50.2,29.71,West,276,7.0,19.0,37,0.00,,---,0.00,VWS V14.01,2013-05-15 21:36:00,
2013-05-15 17:41:00,78.6,50.2,29.71,WNW,291,8.0,19.0,37,0.00,,---,0.00,VWS V14.01,2013-05-15 21:41:00,
2013-05-15 17:46:00,78.4,47.0,29.71,West,269,11.0,19.0,33,0.00,,---,0.00,VWS V14.01,2013-05-15 21:46:00,
2013-05-15 17:51:00,78.6,49.4,29.71,WSW,252,7.0,19.0,36,0.00,,---,0.00,VWS V14.01,2013-05-15 21:51:00,
2013-05-15 17:56:00,78.5,47.0,29.71,WNW,283,11.0,20.0,33,0.00,,---,0.00,VWS V14.01,2013-05-15 21:56:00,
2013-05-15 18:01:00,78.3,47.7,29.71,WNW,302,8.0,20.0,34,0.00,,---,0.00,VWS V14.01,2013-05-15 22:01:00,
2013-05-15 18:06:00,78.2,46.8,29.71,West,274,7.0,12.0,33,0.00,,---,0.00,VWS V14.01,2013-05-15 22:06:00,
2013-05-15 18:11:00,78.2,46.0,29.71,West,266,9.0,17.0,32,0.00,,---,0.00,VWS V14.01,2013-05-15 22:11:00,
2013-05-15 18:17:00,78.0,45.8,29.71,WNW,291,7.0,17.0,32,0.00,,---,0.00,VWS V14.01,2013-05-15 22:17:00,
2013-05-15 18:22:00,78.0,43.2,29.72,West,261,7.0,18.0,29,0.00,,---,0.00,VWS V14.01,2013-05-15 22:22:00,
2013-05-15 18:27:00,77.6,46.2,29.72,West,269,11.0,18.0,33,0.00,,---,0.00,VWS V14.01,2013-05-15 22:27:00,
2013-05-15 18:32:00,77.7,46.3,29.72,NNW,328,8.0,18.0,33,0.00,,---,0.00,VWS V14.01,2013-05-15 22:32:00,
2013-05-15 18:37:00,77.7,46.3,29.71,WNW,301,5.0,18.0,33,0.00,,---,0.00,VWS V14.01,2013-05-15 22:37:00,
2013-05-15 18:42:00,77.8,47.2,29.71,West,276,4.0,18.0,34,0.00,,---,0.00,VWS V14.01,2013-05-15 22:42:00,
2013-05-15 18:48:00,77.7,47.9,29.71,WNW,301,4.0,18.0,35,0.00,,---,0.00,VWS V14.01,2013-05-15 22:48:00,
2013-05-15 18:53:00,77.8,48.7,29.72,West,269,12.0,18.0,36,0.00,,---,0.00,VWS V14.01,2013-05-15 22:53:00,
2013-05-15 18:58:00,77.4,49.8,29.71,West,278,9.0,18.0,38,0.00,,---,0.00,VWS V14.01,2013-05-15 22:58:00,
2013-05-15 19:03:00,77.0,50.2,29.71,West,273,3.0,12.0,39,0.00,,---,0.00,VWS V14.01,2013-05-15 23:03:00,
2013-05-15 19:08:00,76.5,49.7,29.71,West,278,4.0,14.0,39,0.00,,---,0.00,VWS V14.01,2013-05-15 23:08:00,
2013-05-15 19:13:00,75.9,49.9,29.72,WNW,284,6.0,14.0,40,0.00,,---,0.00,VWS V14.01,2013-05-15 23:13:00,
2013-05-15 19:18:00,75.3,49.3,29.71,West,277,8.0,14.0,40,0.00,,---,0.00,VWS V14.01,2013-05-15 23:18:00,
2013-05-15 19:23:00,74.9,49.0,29.71,West,269,8.0,14.0,40,0.00,,---,0.00,VWS V14.01,2013-05-15 23:23:00,
2013-05-15 19:28:00,74.7,49.5,29.71,West,271,4.0,14.0,41,0.00,,---,0.00,VWS V14.01,2013-05-15 23:28:00,
2013-05-15 19:33:00,74.6,49.4,29.71,West,269,5.0,14.0,41,0.00,,---,0.00,VWS V14.01,2013-05-15 23:33:00,
2013-05-15 19:38:00,74.4,48.5,29.71,WSW,255,3.0,14.0,40,0.00,,---,0.00,VWS V14.01,2013-05-15 23:38:00,
2013-05-15 19:44:00,74.4,48.5,29.72,West,269,4.0,14.0,40,0.00,,---,0.00,VWS V14.01,2013-05-15 23:44:00,
2013-05-15 19:49:00,74.2,49.0,29.72,WNW,286,7.0,14.0,41,0.00,,---,0.00,VWS V14.01,2013-05-15 23:49:00,
2013-05-15 19:54:00,74.0,49.5,29.72,West,264,4.0,14.0,42,0.00,,---,0.00,VWS V14.01,2013-05-15 23:54:00,
2013-05-15 19:59:00,73.8,49.3,29.73,West,267,6.0,14.0,42,0.00,,---,0.00,VWS V14.01,2013-05-15 23:59:00,
2013-05-15 20:04:00,73.6,49.1,29.73,West,270,5.0,12.0,42,0.00,,---,0.00,VWS V14.01,2013-05-16 00:04:00,
2013-05-15 20:09:00,73.4,48.3,29.74,West,270,5.0,14.0,41,0.00,,---,0.00,VWS V14.01,2013-05-16 00:09:00,
2013-05-15 20:15:00,73.2,47.5,29.74,WNW,295,5.0,14.0,40,0.00,,---,0.00,VWS V14.01,2013-05-16 00:15:00,
2013-05-15 20:20:00,73.0,47.3,29.74,WNW,284,4.0,14.0,40,0.00,,---,0.00,VWS V14.01,2013-05-16 00:20:00,
2013-05-15 20:25:00,72.9,47.2,29.74,WNW,294,2.0,14.0,40,0.00,,---,0.00,VWS V14.01,2013-05-16 00:25:00,
2013-05-15 20:31:00,72.6,46.2,29.74,NW,312,3.0,14.0,39,0.00,,---,0.00,VWS V14.01,2013-05-16 00:31:00,
2013-05-15 20:36:00,72.6,45.6,29.73,WNW,298,4.0,14.0,38,0.00,,---,0.00,VWS V14.01,2013-05-16 00:36:00,
2013-05-15 20:41:00,72.4,46.1,29.74,WNW,290,1.0,14.0,39,0.00,,---,0.00,VWS V14.01,2013-05-16 00:41:00,
2013-05-15 20:46:00,72.3,46.0,29.74,NW,307,2.0,14.0,39,0.00,,---,0.00,VWS V14.01,2013-05-16 00:46:00,
2013-05-15 20:51:00,72.0,45.7,29.74,NW,317,4.0,14.0,39,0.00,,---,0.00,VWS V14.01,2013-05-16 00:51:00,
2013-05-15 20:56:00,71.9,45.6,29.74,WNW,290,2.0,14.0,39,0.00,,---,0.00,VWS V14.01,2013-05-16 00:56:00,
2013-05-15 21:01:00,71.7,46.1,29.74,West,259,2.0,14.0,40,0.00,,---,0.00,VWS V14.01,2013-05-16 01:01:00,
2013-05-15 21:07:00,71.4,45.8,29.73,WSW,255,1.0,3.0,40,0.00,,---,0.00,VWS V14.01,2013-05-16 01:07:00,
2013-05-15 21:12:00,71.1,46.2,29.73,WSW,249,1.0,3.0,41,0.00,,---,0.00,VWS V14.01,2013-05-16 01:12:00,
2013-05-15 21:18:00,70.9,46.0,29.74,WSW,256,3.0,4.0,41,0.00,,---,0.00,VWS V14.01,2013-05-16 01:18:00,
2013-05-15 21:23:00,70.6,46.4,29.74,WSW,256,2.0,4.0,42,0.00,,---,0.00,VWS V14.01,2013-05-16 01:23:00,
2013-05-15 21:28:00,70.4,46.2,29.74,WNW,292,1.0,4.0,42,0.00,,---,0.00,VWS V14.01,2013-05-16 01:28:00,
2013-05-15 21:33:00,70.1,46.0,29.74,WNW,285,1.0,4.0,42,0.00,,---,0.00,VWS V14.01,2013-05-16 01:33:00,
2013-05-15 21:38:00,69.8,46.3,29.74,West,274,0.0,4.0,43,0.00,,---,0.00,VWS V14.01,2013-05-16 01:38:00,
2013-05-15 21:43:00,69.5,46.0,29.74,NNW,329,0.0,4.0,43,0.00,,---,0.00,VWS V14.01,2013-05-16 01:43:00,
2013-05-15 21:48:00,69.2,46.4,29.75,WNW,298,1.0,4.0,44,0.00,,---,0.00,VWS V14.01,2013-05-16 01:48:00,
2013-05-15 21:53:00,68.8,46.6,29.75,West,266,1.0,4.0,45,0.00,,---,0.00,VWS V14.01,2013-05-16 01:53:00,
2013-05-15 21:59:00,68.3,46.7,29.76,West,273,0.0,4.0,46,0.00,,---,0.00,VWS V14.01,2013-05-16 01:59:00,
2013-05-15 22:04:00,68.0,46.5,29.76,WNW,284,1.0,2.0,46,0.00,,---,0.00,VWS V14.01,2013-05-16 02:04:00,
2013-05-15 22:10:00,68.0,47.0,29.76,NW,308,1.0,2.0,47,0.00,,---,0.00,VWS V14.01,2013-05-16 02:10:00,
2013-05-15 22:15:00,67.9,47.0,29.76,NNW,344,1.0,3.0,47,0.00,,---,0.00,VWS V14.01,2013-05-16 02:15:00,
2013-05-15 22:20:00,67.9,47.5,29.76,WNW,292,2.0,4.0,48,0.00,,---,0.00,VWS V14.01,2013-05-16 02:20:00,
2013-05-15 22:25:00,67.9,48.1,29.76,WNW,297,1.0,4.0,49,0.00,,---,0.00,VWS V14.01,2013-05-16 02:25:00,
2013-05-15 22:30:00,67.8,48.0,29.76,West,271,2.0,4.0,49,0.00,,---,0.00,VWS V14.01,2013-05-16 02:30:00,
2013-05-15 22:35:00,67.7,47.9,29.76,West,281,1.0,4.0,49,0.00,,---,0.00,VWS V14.01,2013-05-16 02:35:00,
2013-05-15 22:41:00,67.7,48.4,29.77,WSW,254,1.0,4.0,50,0.00,,---,0.00,VWS V14.01,2013-05-16 02:41:00,
2013-05-15 22:46:00,67.6,48.3,29.77,West,277,1.0,4.0,50,0.00,,---,0.00,VWS V14.01,2013-05-16 02:46:00,
2013-05-15 22:51:00,67.5,48.8,29.76,West,277,1.0,4.0,51,0.00,,---,0.00,VWS V14.01,2013-05-16 02:51:00,
2013-05-15 22:56:00,67.4,48.7,29.76,NW,305,1.0,4.0,51,0.00,,---,0.00,VWS V14.01,2013-05-16 02:56:00,
2013-05-15 23:01:00,67.2,49.0,29.76,WNW,301,1.0,4.0,52,0.00,,---,0.00,VWS V14.01,2013-05-16 03:01:00,
2013-05-15 23:07:00,67.1,48.4,29.76,WNW,298,8.0,9.0,51,0.00,,---,0.00,VWS V14.01,2013-05-16 03:07:00,
2013-05-15 23:12:00,67.0,48.3,29.77,NW,314,2.0,9.0,51,0.00,,---,0.00,VWS V14.01,2013-05-16 03:12:00,
2013-05-15 23:18:00,66.9,48.2,29.76,WNW,291,4.0,9.0,51,0.00,,---,0.00,VWS V14.01,2013-05-16 03:18:00,
2013-05-15 23:23:00,66.6,47.9,29.77,WNW,291,2.0,9.0,51,0.00,,---,0.00,VWS V14.01,2013-05-16 03:23:00,
2013-05-15 23:28:00,66.2,47.6,29.77,WNW,290,1.0,9.0,51,0.00,,---,0.00,VWS V14.01,2013-05-16 03:28:00,
2013-05-15 23:33:00,66.0,47.4,29.76,WNW,293,1.0,9.0,51,0.00,,---,0.00,VWS V14.01,2013-05-16 03:33:00,
2013-05-15 23:38:00,65.6,47.5,29.77,West,269,2.0,9.0,52,0.00,,---,0.00,VWS V14.01,2013-05-16 03:38:00,
2013-05-15 23:43:00,65.4,47.3,29.76,NW,311,1.0,9.0,52,0.00,,---,0.00,VWS V14.01,2013-05-16 03:43:00,
2013-05-15 23:48:00,65.2,47.2,29.76,NW,321,1.0,9.0,52,0.00,,---,0.00,VWS V14.01,2013-05-16 03:48:00,
2013-05-15 23:53:00,64.9,46.9,29.76,WNW,293,1.0,9.0,52,0.00,,---,0.00,VWS V14.01,2013-05-16 03:53:00,
2013-05-15 23:58:00,64.5,47.0,29.76,WNW,294,0.0,9.0,53,0.00,,---,0.00,VWS V14.01,2013-05-16 03:58:00,